Location: Flotzheim
(48.8375°N, 10.8136°E)
Time: 03:44:08
(UTC+00:00)

Cosmos 1833 Rocket - Pass Details

Date: 23 January 2021
Orbit: 833 x 839 km, 71.0° (Epoch: 26 February)

Event Time Altitude Azimuth Distance (km) Brightness Sun altitude
Rises 18:41:04 0° 330° (NNW) 3,392 6.2 -26.2°
Reaches altitude 10° 18:43:30 10° 330° (NNW) 2,455 5.5 -26.6°
Maximum altitude 18:49:08 80° 245° (WSW) 854 2.7 -27.5°
Enters shadow 18:49:56 65° 179° (S) 914 2.7 -27.6°
